Simultaneous Nadir Overpasses (SNOs) Predictions

Prediction of SNOs near US between AQUA and NPP Satellite Orbit:

Table of predicted SNOs near US for the next 10.0 days since TLE Epoch: 7/19/2014
Index Date (AQUA) Time (AQUA) AQUA Lat,Lon Date (NPP) Time (NPP) NPP Lat,Lon Distance(km) Time Diff (sec)
1 07/19/2014 06:56:29 20.00, -77.19 07/19/2014 06:51:55 19.92, -76.75 47.74 274
2 07/19/2014 08:32:07 31.74, -99.01 07/19/2014 08:30:03 31.74, -99.01 0.83 124
3 07/19/2014 10:05:56 49.90,-117.75 07/19/2014 10:06:19 49.95,-118.00 18.94 23
4 07/21/2014 21:04:02 49.97,-121.90 07/21/2014 20:56:38 50.00,-121.67 17.32 444
5 07/22/2014 07:19:00 49.92, -76.01 07/22/2014 07:27:19 51.62, -77.58 218.20 499
6 07/24/2014 18:16:14 46.81, -78.91 07/24/2014 18:17:07 46.49, -80.53 128.43 53
7 07/24/2014 19:52:36
